{"data":{"norad_id":58947,"intl_designator":"2024-027S","name":"STARLINK-31116","alt_names":[],"object_type":"PAYLOAD","status":"ACTIVE","operator":null,"country":"US","launch_date":"2024-02-10","launch_site_code":"AFWTR","launch_vehicle":null,"mission":null,"orbit_class":"UNKNOWN","rcs_meters":null,"size_class":null,"mass_kg":null,"dimensions":null,"purposes":["comms"],"wikipedia_slug":null,"has_3d_model":false,"image_url":null,"decayed_at":null,"tle_current":{"epoch":"2026-05-25T04:29:45.866688Z","epoch_age_seconds":55030,"freshness":"FRESH","line1":"1 58947U 24027S   26145.18733642  .00001519  00000+0  60691-4 0  9991","line2":"2 58947  53.1597 314.0725 0001308  90.5652 269.5499 15.31708390129043","mean_motion":15.3170839,"eccentricity":0.0001308,"inclination_deg":53.1597,"raan_deg":314.0725,"arg_perigee_deg":90.5652,"mean_anomaly_deg":269.5499,"bstar":6.0691e-5,"rev_number":12904,"period_min":94.012672999722,"perigee_km":469.81915534673,"apogee_km":471.61081502605,"semimajor_km":6848.8519851864,"source":"CELESTRAK","updated_at":"2026-05-25T13:38:18.791701Z"}}}